�������l�o���
Date,Time,MP-1(��Sv/h),MP-2(��Sv/h),MP-3(��Sv/h),MP-4(��Sv/h),MP-5(��Sv/h),MP-6(��Sv/h),MP-7(��Sv/h),MP-8(��Sv/h),����,����(m/s),���J
2020/03/18,00:00,0.690,0.991,0.663,1.202,0.865,0.399,0.696,0.658,��쓌,0.9,��
2020/03/18,00:10,0.691,0.989,0.663,1.201,0.865,0.400,0.695,0.660,���쐼,2.9,��
2020/03/18,00:20,0.691,0.991,0.663,1.202,0.864,0.400,0.695,0.659,��,2.6,��
2020/03/18,00:30,0.690,0.989,0.663,1.201,0.862,0.400,0.695,0.659,��,3.3,��
2020/03/18,00:40,0.690,0.989,0.662,1.202,0.863,0.401,0.694,0.659,�k�k��,2.0,��
2020/03/18,00:50,0.692,0.990,0.663,1.204,0.864,0.399,0.696,0.660,���k��,1.7,��
2020/03/18,01:00,0.693,0.989,0.663,1.204,0.865,0.399,0.695,0.659,��,6.0,��
2020/03/18,01:10,0.689,0.989,0.664,1.201,0.867,0.402,0.693,0.661,��,9.5,��
2020/03/18,01:20,0.690,0.991,0.663,1.205,0.864,0.400,0.697,0.660,��,11.1,��
2020/03/18,01:30,0.691,0.990,0.665,1.202,0.866,0.401,0.696,0.659,��,7.7,��
2020/03/18,01:40,0.689,0.989,0.662,1.201,0.867,0.399,0.696,0.661,���k��,7.0,��
2020/03/18,01:50,0.691,0.990,0.664,1.201,0.865,0.399,0.697,0.661,��,6.0,��
2020/03/18,02:00,0.691,0.991,0.665,1.200,0.867,0.400,0.696,0.659,��,7.4,��
2020/03/18,02:10,0.691,0.990,0.665,1.204,0.866,0.400,0.697,0.660,���k��,9.5,��
2020/03/18,02:20,0.692,0.992,0.663,1.203,0.864,0.400,0.696,0.661,���k��,12.0,��
2020/03/18,02:30,0.690,0.990,0.663,1.201,0.866,0.402,0.697,0.661,��,10.9,��
2020/03/18,02:40,0.689,0.990,0.664,1.202,0.867,0.400,0.697,0.661,��,13.1,��
2020/03/18,02:50,0.692,0.989,0.664,1.203,0.864,0.400,0.695,0.661,��,10.3,��
2020/03/18,03:00,0.691,0.991,0.663,1.204,0.868,0.400,0.696,0.661,��,8.0,��
2020/03/18,03:10,0.690,0.990,0.664,1.203,0.865,0.401,0.695,0.661,��,7.5,��
2020/03/18,03:20,0.691,0.992,0.665,1.203,0.865,0.399,0.695,0.661,��,11.3,��
2020/03/18,03:30,0.689,0.989,0.665,1.202,0.865,0.400,0.696,0.660,��,13.5,��
2020/03/18,03:40,0.690,0.989,0.664,1.202,0.864,0.401,0.696,0.660,��,14.2,��
2020/03/18,03:50,0.691,0.992,0.664,1.204,0.863,0.400,0.697,0.661,���쐼,12.7,��
2020/03/18,04:00,0.692,0.991,0.663,1.203,0.862,0.400,0.696,0.662,��,12.2,��
2020/03/18,04:10,0.690,0.993,0.663,1.204,0.864,0.400,0.695,0.660,��,12.1,��
2020/03/18,04:20,0.690,0.991,0.663,1.205,0.865,0.400,0.695,0.660,��,11.6,��
2020/03/18,04:30,0.692,0.990,0.663,1.204,0.866,0.400,0.695,0.662,��,12.5,��
2020/03/18,04:40,0.692,0.991,0.662,1.204,0.864,0.400,0.695,0.661,��,13.3,��
2020/03/18,04:50,0.692,0.991,0.661,1.204,0.866,0.401,0.696,0.659,��,13.0,��
2020/03/18,05:00,0.691,0.991,0.662,1.206,0.865,0.400,0.697,0.660,��,12.7,��
2020/03/18,05:10,0.693,0.991,0.663,1.206,0.864,0.400,0.695,0.661,��,12.0,��
2020/03/18,05:20,0.691,0.991,0.663,1.206,0.866,0.400,0.697,0.661,��,12.1,��
2020/03/18,05:30,0.692,0.992,0.664,1.204,0.864,0.401,0.697,0.659,��,9.9,��
2020/03/18,05:40,0.690,0.991,0.663,1.205,0.867,0.400,0.695,0.659,��,13.0,��
2020/03/18,05:50,0.691,0.992,0.665,1.204,0.865,0.400,0.696,0.659,��,11.8,��
2020/03/18,06:00,0.692,0.993,0.663,1.205,0.866,0.401,0.696,0.660,��,10.9,��
2020/03/18,06:10,0.691,0.992,0.663,1.205,0.866,0.401,0.697,0.661,��,11.7,��
2020/03/18,06:20,0.693,0.991,0.665,1.205,0.865,0.400,0.696,0.661,��,11.3,��
2020/03/18,06:30,0.690,0.990,0.664,1.207,0.867,0.401,0.697,0.661,��,11.1,��
2020/03/18,06:40,0.692,0.992,0.663,1.204,0.865,0.402,0.696,0.659,���쐼,11.3,��
2020/03/18,06:50,0.692,0.992,0.664,1.204,0.866,0.399,0.695,0.660,���쐼,10.5,��
2020/03/18,07:00,0.689,0.991,0.663,1.207,0.866,0.399,0.697,0.663,��,10.3,��
2020/03/18,07:10,0.692,0.992,0.663,1.205,0.865,0.401,0.695,0.661,��,8.4,��
2020/03/18,07:20,0.693,0.990,0.662,1.204,0.865,0.401,0.697,0.661,��,4.2,��
2020/03/18,07:30,0.694,0.993,0.662,1.204,0.864,0.401,0.695,0.661,��,3.8,��
2020/03/18,07:40,0.691,0.990,0.663,1.204,0.864,0.401,0.695,0.661,�k�k��,2.9,��
2020/03/18,07:50,0.691,0.993,0.664,1.205,0.866,0.399,0.696,0.661,�k�k��,3.0,��
2020/03/18,08:00,0.693,0.992,0.663,1.206,0.865,0.399,0.697,0.661,�k��,5.7,��
2020/03/18,08:10,0.692,0.993,0.663,1.205,0.864,0.401,0.696,0.660,���k��,5.1,��
2020/03/18,08:20,0.692,0.988,0.662,1.207,0.864,0.401,0.695,0.661,���k��,4.7,��
2020/03/18,08:30,0.692,0.988,0.662,1.207,0.866,0.400,0.696,0.663,���k��,4.7,��
2020/03/18,08:40,0.693,0.986,0.662,1.207,0.865,0.401,0.695,0.661,���k��,6.0,��
2020/03/18,08:50,0.692,0.985,0.663,1.204,0.866,0.400,0.694,0.662,���k��,6.0,��
2020/03/18,09:00,0.692,0.988,0.664,1.208,0.866,0.399,0.694,0.662,��,5.1,��
2020/03/18,09:10,0.692,0.983,0.662,1.204,0.865,0.399,0.695,0.665,��,4.0,��
2020/03/18,09:20,0.690,0.984,0.662,1.206,0.867,0.399,0.693,0.663,���k��,7.0,��
2020/03/18,09:30,0.695,0.980,0.664,1.206,0.868,0.398,0.693,0.661,��,2.9,��
2020/03/18,09:40,0.693,0.982,0.664,1.207,0.867,0.399,0.696,0.660,�k��,4.4,��
2020/03/18,09:50,0.694,0.986,0.664,1.206,0.868,0.400,0.693,0.662,���k��,6.2,��
2020/03/18,10:00,0.693,0.985,0.664,1.206,0.866,0.400,0.696,0.663,���k��,9.3,��
2020/03/18,10:10,0.693,0.981,0.665,1.208,0.869,0.399,0.695,0.660,��,8.2,��
2020/03/18,10:20,0.695,0.987,0.664,1.208,0.867,0.399,0.694,0.660,��,9.3,��
2020/03/18,10:30,0.691,0.988,0.667,1.205,0.869,0.398,0.696,0.658,���k��,11.7,��
2020/03/18,10:40,0.696,0.986,0.663,1.210,0.868,0.399,0.695,0.658,��,11.6,��
2020/03/18,10:50,0.695,0.989,0.664,1.208,0.868,0.397,0.697,0.660,���쐼,11.3,��
2020/03/18,11:00,0.693,0.990,0.663,1.208,0.866,0.399,0.693,0.658,��,8.7,��
2020/03/18,11:10,0.694,0.989,0.663,1.206,0.866,0.396,0.697,0.659,��,10.2,��
2020/03/18,11:20,0.691,0.987,0.660,1.208,0.868,0.398,0.695,0.658,��,9.5,��
2020/03/18,11:30,0.691,0.986,0.663,1.207,0.866,0.398,0.695,0.658,���k��,10.5,��
2020/03/18,11:40,0.690,0.986,0.663,1.208,0.867,0.398,0.695,0.659,���k��,9.1,��
2020/03/18,11:50,0.694,0.988,0.662,1.206,0.866,0.398,0.697,0.659,���k��,9.2,��
2020/03/18,12:00,0.696,0.990,0.663,1.209,0.867,0.399,0.697,0.659,���k��,9.6,��
2020/03/18,12:10,0.695,0.994,0.664,1.211,0.868,0.399,0.696,0.660,���k��,8.2,��
2020/03/18,12:20,0.695,0.992,0.663,1.209,0.867,0.400,0.695,0.659,���k��,10.7,��
2020/03/18,12:30,0.695,0.991,0.663,1.209,0.869,0.399,0.697,0.660,���k��,6.6,��
2020/03/18,12:40,0.693,0.994,0.662,1.210,0.868,0.402,0.696,0.659,��,8.3,��
2020/03/18,12:50,0.694,0.991,0.663,1.209,0.866,0.402,0.696,0.660,��,7.6,��
2020/03/18,13:00,0.695,0.989,0.663,1.209,0.868,0.401,0.696,0.657,��,8.2,��
2020/03/18,13:10,0.694,0.990,0.660,1.211,0.868,0.399,0.696,0.659,���k��,7.6,��
2020/03/18,13:20,0.693,0.991,0.662,1.210,0.867,0.400,0.697,0.659,��,9.0,��
2020/03/18,13:30,0.694,0.990,0.665,1.210,0.867,0.401,0.694,0.660,��,6.6,��
2020/03/18,13:40,0.694,0.990,0.664,1.211,0.870,0.402,0.696,0.660,��,8.0,��
2020/03/18,13:50,0.692,0.994,0.665,1.212,0.867,0.401,0.696,0.660,���k��,9.9,��
2020/03/18,14:00,0.694,0.991,0.665,1.210,0.870,0.401,0.696,0.660,��,7.7,��
2020/03/18,14:10,0.693,0.990,0.666,1.212,0.869,0.401,0.695,0.659,���k��,5.8,��
2020/03/18,14:20,0.694,0.991,0.664,1.210,0.869,0.401,0.695,0.660,��,7.5,��
2020/03/18,14:30,0.695,0.990,0.664,1.211,0.868,0.402,0.697,0.659,��,8.9,��
2020/03/18,14:40,0.693,0.992,0.664,1.211,0.870,0.402,0.696,0.659,��,10.2,��
2020/03/18,14:50,0.693,0.990,0.664,1.213,0.868,0.401,0.695,0.660,��,7.7,��
2020/03/18,15:00,0.694,0.993,0.667,1.212,0.870,0.402,0.697,0.660,��,8.2,��
2020/03/18,15:10,0.694,0.993,0.665,1.212,0.870,0.403,0.696,0.659,��,6.6,��
2020/03/18,15:20,0.693,0.993,0.666,1.213,0.870,0.402,0.696,0.662,��,6.5,��
2020/03/18,15:30,0.694,0.996,0.665,1.212,0.869,0.402,0.695,0.660,��,8.3,��
2020/03/18,15:40,0.696,0.994,0.666,1.212,0.871,0.401,0.696,0.663,��,6.6,��
2020/03/18,15:50,0.695,0.998,0.665,1.215,0.869,0.403,0.696,0.660,���k��,6.1,��
2020/03/18,16:00,0.696,0.997,0.666,1.210,0.869,0.402,0.698,0.660,��,7.3,��
2020/03/18,16:10,0.696,0.996,0.667,1.212,0.871,0.402,0.695,0.659,���쐼,10.0,��
2020/03/18,16:20,0.694,0.997,0.665,1.211,0.870,0.402,0.697,0.659,��,10.7,��
2020/03/18,16:30,0.694,0.998,0.665,1.215,0.869,0.403,0.696,0.659,���쐼,10.5,��
2020/03/18,16:40,0.696,0.995,0.666,1.215,0.872,0.401,0.695,0.659,��,10.5,��
2020/03/18,16:50,0.696,0.997,0.666,1.214,0.868,0.402,0.695,0.659,��,10.2,��
2020/03/18,17:00,0.696,0.999,0.667,1.212,0.871,0.402,0.696,0.660,���쐼,9.0,��
2020/03/18,17:10,0.694,0.999,0.666,1.213,0.869,0.401,0.696,0.659,���쐼,8.7,��
2020/03/18,17:20,0.695,0.999,0.665,1.213,0.870,0.401,0.695,0.662,��,7.9,��
2020/03/18,17:30,0.694,1.001,0.666,1.212,0.869,0.402,0.696,0.664,��,10.0,��
2020/03/18,17:40,0.695,1.000,0.666,1.212,0.870,0.402,0.695,0.662,��,10.5,��
2020/03/18,17:50,0.696,1.002,0.667,1.214,0.869,0.401,0.697,0.663,��,12.2,��
2020/03/18,18:00,0.696,0.998,0.667,1.213,0.870,0.402,0.695,0.664,��,10.2,��
2020/03/18,18:10,0.698,0.997,0.667,1.213,0.871,0.402,0.697,0.662,��,10.5,��
2020/03/18,18:20,0.696,0.999,0.666,1.213,0.870,0.403,0.697,0.663,��,11.6,��
2020/03/18,18:30,0.698,1.000,0.666,1.216,0.874,0.401,0.696,0.663,��,11.9,��
2020/03/18,18:40,0.697,1.001,0.669,1.214,0.873,0.402,0.697,0.662,���k��,9.9,��
2020/03/18,18:50,0.696,1.002,0.666,1.214,0.876,0.402,0.696,0.664,��,7.6,��
2020/03/18,19:00,0.697,1.000,0.667,1.213,0.872,0.401,0.693,0.662,��,5.8,��
2020/03/18,19:10,0.696,1.001,0.667,1.214,0.871,0.402,0.696,0.661,��,4.2,��
2020/03/18,19:20,0.696,0.999,0.667,1.215,0.873,0.401,0.698,0.664,��,3.4,��
2020/03/18,19:30,0.695,0.999,0.668,1.216,0.872,0.401,0.698,0.663,��쐼,5.5,��
2020/03/18,19:40,0.697,0.999,0.667,1.213,0.871,0.403,0.696,0.661,�쐼,6.1,��
2020/03/18,19:50,0.697,1.000,0.667,1.212,0.872,0.401,0.696,0.663,�쐼,5.2,��
2020/03/18,20:00,0.698,0.998,0.669,1.214,0.874,0.401,0.696,0.662,���쐼,5.2,��
2020/03/18,20:10,0.696,0.999,0.669,1.213,0.872,0.402,0.696,0.661,�쐼,5.0,��
2020/03/18,20:20,0.696,0.999,0.667,1.213,0.872,0.401,0.697,0.662,�쐼,5.3,��
2020/03/18,20:30,0.697,1.000,0.667,1.215,0.871,0.402,0.697,0.661,�쐼,6.0,��
2020/03/18,20:40,0.695,1.001,0.667,1.216,0.871,0.402,0.698,0.663,�쐼,5.0,��
2020/03/18,20:50,0.695,1.000,0.668,1.213,0.872,0.400,0.697,0.664,�쐼,4.7,��
2020/03/18,21:00,0.695,0.999,0.667,1.214,0.871,0.402,0.696,0.663,�쐼,3.9,��
2020/03/18,21:10,0.697,0.999,0.668,1.214,0.873,0.402,0.696,0.661,�쐼,4.1,��
2020/03/18,21:20,0.695,1.000,0.669,1.212,0.873,0.401,0.695,0.661,�쐼,4.8,��
2020/03/18,21:30,0.696,1.000,0.668,1.213,0.873,0.402,0.698,0.662,��쐼,4.0,��
2020/03/18,21:40,0.694,0.999,0.666,1.215,0.872,0.401,0.698,0.663,��쐼,4.5,��
2020/03/18,21:50,0.696,1.000,0.667,1.214,0.872,0.401,0.696,0.660,��쐼,5.1,��
2020/03/18,22:00,0.696,0.999,0.668,1.214,0.870,0.401,0.697,0.660,�쐼,4.5,��
2020/03/18,22:10,0.693,0.999,0.666,1.215,0.871,0.399,0.695,0.662,�쐼,2.3,��
2020/03/18,22:20,0.696,0.999,0.666,1.216,0.873,0.400,0.696,0.661,�쐼,2.8,��
2020/03/18,22:30,0.697,0.998,0.668,1.213,0.871,0.399,0.697,0.662,���쐼,2.3,��
2020/03/18,22:40,0.696,0.998,0.667,1.212,0.871,0.401,0.698,0.662,�쐼,2.0,��
2020/03/18,22:50,0.694,1.001,0.667,1.213,0.872,0.401,0.698,0.661,���쐼,2.8,��
2020/03/18,23:00,0.695,0.999,0.667,1.211,0.872,0.401,0.697,0.662,���쐼,3.6,��
2020/03/18,23:10,0.695,0.998,0.666,1.214,0.871,0.401,0.698,0.661,���쐼,3.8,��
2020/03/18,23:20,0.695,0.999,0.667,1.214,0.870,0.400,0.696,0.662,���쐼,3.7,��
2020/03/18,23:30,0.695,0.998,0.665,1.214,0.872,0.401,0.697,0.662,��,2.9,��
2020/03/18,23:40,0.696,0.997,0.667,1.213,0.870,0.399,0.697,0.661,�쐼,1.5,��
2020/03/18,23:50,0.693,0.999,0.667,1.211,0.871,0.400,0.696,0.661,��,1.5,��
